133  
ASCA42 TJSJ 180210  
RWRPR  
PUERTO RICO/U.S. VIRGIN ISLANDS HOURLY WEATHER ROUNDUP  
NATIONAL WEATHER SERVICE SAN JUAN PR  
1000 PM AST SAT APR 17 2021  
 
PRZ001>002-007>008-010-180300-  
PUERTO RICO  
 
CITY SKY/WX TMP DP RH WIND PRES REMARKS
 
SAN JUAN LMM CLEAR 81 70 69 S3 30.05R  
AGUADILLA CLEAR 79 75 89 NE3 30.05R  
CEIBA PTCLDY 79 72 78 S5 30.07R  

 
 
VIZ001>002-180300-  
U.S. VIRGIN ISLANDS  
 
CITY SKY/WX TMP DP RH WIND PRES REMARKS
 
CHARLOTTE AMA PTCLDY 81 72 74 SE10 30.05R  
CHRISTIANSTED CLEAR 75 72 88 NE5 30.07R  

 
 
HOURLY WEATHER ROUNDUP FOR THE NEWS MEDIA  
 
CITY SKY/WX TMP DP RH WIND PRES REMARKS
 
ORLANDO PTCLDY 79 68 69 W7 29.88R  
NEW YORK CLOUDY 51 35 54 NE9 29.83R  
NEWARK CLOUDY 52 32 46 N9 29.83R  
CHICAGO PTCLDY 45 23 42 NE6 29.96R  
HARTFORD CLOUDY 44 39 82 CALM 29.78S  
BOSTON CLOUDY 47 35 63 CALM 29.79S  
DALLAS CLOUDY 59 39 47 N8 30.09R  
PHILADELPHIA CLOUDY 53 37 54 N10 29.85R  
LOS ANGELES PTCLDY 60 51 72 W13 29.92S  
WASHINGTON DC CLOUDY 53 39 59 NE6 29.87R  
 
CLICK HERE TO GO TO PREVIOUS BULLETINS.

The Nexlab PR Page Main Text Page